sat.trackr.live / text

‹ back to catalog

STARLINK-11734 [DTC]

NORAD 64329 · 2025-124N

PAYLOAD ACTIVE UNKNOWN

§ Identity

Operator
Country
US
Launch date
2025-06-10
Launch site
AFETR
Launch vehicle
Mass (kg)
RCS (m²)

Purposes: comms

External: N2YO · Heavens-Above · Gunter

§ Orbital elements

Epoch: 2026-09-20T03:41:18.194784Z

Period
91.67 min
Inclination
43.0002°
Eccentricity
0.0002241
Mean motion
15.70895139 rev/d
Perigee alt
354.8 km
Apogee alt
357.8 km
Semi-major
6,734.5 km
B*
1.0959e-3
RAAN
296.5892°
Arg perigee
272.6897°
Mean anomaly
87.3714°
Rev number
7,342

§ Raw data

STARLINK-11734 [DTC]1 64329U 25124N   26263.15368281  .00142951  00000+0  10959-2 0  99982 64329  43.0002 296.5892 0002241 272.6897  87.3714 15.70895139 73420

JSON: /api/v1/satellites/64329 · /tle

For live sub-satellite position, see the globe view (requires WebGL).

§ Visibility from observer

Set your observer location to see the next 7 days of passes ≥ 10°. The values pass through the URL so the page stays shareable.

No JS? Fill the form by hand. The geolocation button needs JavaScript.